owner,sensor,date,latitude,longitude,vertical_datum,mass_concentration_of_oxygen_in_sea_water,qcFlag 
DISL,ioos:station:DISL:BSCA:1,2014-04-01T00:00:00Z,30.3288,-87.8293,1.632,10.14,1111122 
DISL,ioos:station:DISL:BSCA:1,2014-04-01T00:30:00Z,30.3288,-87.8293,1.622,9.62,1111122 
DISL,ioos:station:DISL:BSCA:1,2014-04-01T01:00:00Z,30.3288,-87.8293,1.617,8.08,1111122 
DISL,ioos:station:DISL:BSCA:1,2014-04-01T01:30:00Z,30.3288,-87.8293,1.62,7.37,1111122 
DISL,ioos:station:DISL:BSCA:1,2014-04-01T02:00:00Z,30.3288,-87.8293,1.624,8.68,1111122 
DISL,ioos:station:DISL:BSCA:1,2014-04-01T02:30:00Z,30.3288,-87.8293,1.615,6.53,1111122 
DISL,ioos:station:DISL:BSCA:1,2014-04-01T03:00:00Z,30.3288,-87.8293,1.632,7.9,1111122 
DISL,ioos:station:DISL:BSCA:1,2014-04-01T03:30:00Z,30.3288,-87.8293,1.627,8.05,1111122 
DISL,ioos:station:DISL:BSCA:1,2014-04-01T04:00:00Z,30.3288,-87.8293,1.64,8.64,1111122 
DISL,ioos:station:DISL:BSCA:1,2014-04-01T04:30:00Z,30.3288,-87.8293,1.656,8.33,1111122 
DISL,ioos:station:DISL:BSCA:1,2014-04-01T05:00:00Z,30.3288,-87.8293,1.683,7.07,1111122 
DISL,ioos:station:DISL:BSCA:1,2014-04-01T05:30:00Z,30.3288,-87.8293,1.724,6.66,1111122 
DISL,ioos:station:DISL:BSCA:1,2014-04-01T06:00:00Z,30.3288,-87.8293,1.762,6.83,1111122 
DISL,ioos:station:DISL:BSCA:1,2014-04-01T06:30:00Z,30.3288,-87.8293,1.793,7.4,1111122 
DISL,ioos:station:DISL:BSCA:1,2014-04-01T07:00:00Z,30.3288,-87.8293,1.815,7.91,1111122 
DISL,ioos:station:DISL:BSCA:1,2014-04-01T07:30:00Z,30.3288,-87.8293,1.82,5.19,1111122 
DISL,ioos:station:DISL:BSCA:1,2014-04-01T08:00:00Z,30.3288,-87.8293,1.828,5.38,1111122 
DISL,ioos:station:DISL:BSCA:1,2014-04-01T08:30:00Z,30.3288,-87.8293,1.841,9.26,1111122 
DISL,ioos:station:DISL:BSCA:1,2014-04-01T09:00:00Z,30.3288,-87.8293,1.83,7.22,1111122 
DISL,ioos:station:DISL:BSCA:1,2014-04-01T09:30:00Z,30.3288,-87.8293,1.845,7.38,1111122 
DISL,ioos:station:DISL:BSCA:1,2014-04-01T10:00:00Z,30.3288,-87.8293,1.85,7.12,1111122 
DISL,ioos:station:DISL:BSCA:1,2014-04-01T10:30:00Z,30.3288,-87.8293,1.864,6.84,1111122 
DISL,ioos:station:DISL:BSCA:1,2014-04-01T11:00:00Z,30.3288,-87.8293,1.871,7.29,1111122 
DISL,ioos:station:DISL:BSCA:1,2014-04-01T11:30:00Z,30.3288,-87.8293,1.881,7.46,1111122 
DISL,ioos:station:DISL:BSCA:1,2014-04-01T12:00:00Z,30.3288,-87.8293,1.894,7.38,1111122 
DISL,ioos:station:DISL:BSCA:1,2014-04-01T12:30:00Z,30.3288,-87.8293,1.899,7.08,1111122 
DISL,ioos:station:DISL:BSCA:1,2014-04-01T13:00:00Z,30.3288,-87.8293,1.915,7.35,1111122 
DISL,ioos:station:DISL:BSCA:1,2014-04-01T13:30:00Z,30.3288,-87.8293,1.934,7.29,1111122 
DISL,ioos:station:DISL:BSCA:1,2014-04-01T14:00:00Z,30.3288,-87.8293,1.949,7.43,1111122 
DISL,ioos:station:DISL:BSCA:1,2014-04-01T14:30:00Z,30.3288,-87.8293,1.974,8.66,1111122 
DISL,ioos:station:DISL:BSCA:1,2014-04-01T15:00:00Z,30.3288,-87.8293,1.998,7.87,1111122 
DISL,ioos:station:DISL:BSCA:1,2014-04-01T15:30:00Z,30.3288,-87.8293,2.022,8.13,1111122 
DISL,ioos:station:DISL:BSCA:1,2014-04-01T16:00:00Z,30.3288,-87.8293,2.026,8.3,1111122 
DISL,ioos:station:DISL:BSCA:1,2014-04-01T16:30:00Z,30.3288,-87.8293,2.021,8.55,1111122 
DISL,ioos:station:DISL:BSCA:1,2014-04-01T17:00:00Z,30.3288,-87.8293,2.024,9.38,1111122 
DISL,ioos:station:DISL:BSCA:1,2014-04-01T17:30:00Z,30.3288,-87.8293,2.02,8.3,1111122 
DISL,ioos:station:DISL:BSCA:1,2014-04-01T18:00:00Z,30.3288,-87.8293,2.043,9.41,1111122 
DISL,ioos:station:DISL:BSCA:1,2014-04-01T18:30:00Z,30.3288,-87.8293,2.057,9.88,1111122 
DISL,ioos:station:DISL:BSCA:1,2014-04-01T19:00:00Z,30.3288,-87.8293,2.041,10.25,1111122 
DISL,ioos:station:DISL:BSCA:1,2014-04-01T19:30:00Z,30.3288,-87.8293,2.015,10.27,1111122 
DISL,ioos:station:DISL:BSCA:1,2014-04-01T20:00:00Z,30.3288,-87.8293,1.984,11.49,1111122 
DISL,ioos:station:DISL:BSCA:1,2014-04-01T20:30:00Z,30.3288,-87.8293,1.94,11.68,1111122 
DISL,ioos:station:DISL:BSCA:1,2014-04-01T21:00:00Z,30.3288,-87.8293,1.907,11.8,1111122 
DISL,ioos:station:DISL:BSCA:1,2014-04-01T21:30:00Z,30.3288,-87.8293,1.871,11.81,1111122 
DISL,ioos:station:DISL:BSCA:1,2014-04-01T22:00:00Z,30.3288,-87.8293,1.833,11.93,1111122 
DISL,ioos:station:DISL:BSCA:1,2014-04-01T22:30:00Z,30.3288,-87.8293,1.81,11.8,1111122 
DISL,ioos:station:DISL:BSCA:1,2014-04-01T23:00:00Z,30.3288,-87.8293,1.78,11.34,1111122 
DISL,ioos:station:DISL:BSCA:1,2014-04-01T23:30:00Z,30.3288,-87.8293,1.759,11.33,1111122 
DISL,ioos:station:DISL:BSCA:1,2014-04-02T00:00:00Z,30.3288,-87.8293,1.742,11.4,1111122 
DISL,ioos:station:DISL:BSCA:1,2014-04-02T00:30:00Z,30.3288,-87.8293,1.716,10.96,1111122 
DISL,ioos:station:DISL:BSCA:1,2014-04-02T01:00:00Z,30.3288,-87.8293,1.693,10.86,1111122 
DISL,ioos:station:DISL:BSCA:1,2014-04-02T01:30:00Z,30.3288,-87.8293,1.671,10.11,1111122 
DISL,ioos:station:DISL:BSCA:1,2014-04-02T02:00:00Z,30.3288,-87.8293,1.653,10.44,1111122 
DISL,ioos:station:DISL:BSCA:1,2014-04-02T02:30:00Z,30.3288,-87.8293,1.639,10.26,1111122 
DISL,ioos:station:DISL:BSCA:1,2014-04-02T03:00:00Z,30.3288,-87.8293,1.633,9.81,1111122 
DISL,ioos:station:DISL:BSCA:1,2014-04-02T03:30:00Z,30.3288,-87.8293,1.636,10.15,1111122 
DISL,ioos:station:DISL:BSCA:1,2014-04-02T04:00:00Z,30.3288,-87.8293,1.654,8.91,1111122 
DISL,ioos:station:DISL:BSCA:1,2014-04-02T04:30:00Z,30.3288,-87.8293,1.667,8.79,1111122 
DISL,ioos:station:DISL:BSCA:1,2014-04-02T05:00:00Z,30.3288,-87.8293,1.683,8.01,1111122 
DISL,ioos:station:DISL:BSCA:1,2014-04-02T05:30:00Z,30.3288,-87.8293,1.697,7.42,1111122 
DISL,ioos:station:DISL:BSCA:1,2014-04-02T06:00:00Z,30.3288,-87.8293,1.71,7.92,1111122 
DISL,ioos:station:DISL:BSCA:1,2014-04-02T06:30:00Z,30.3288,-87.8293,1.729,8.49,1111122 
DISL,ioos:station:DISL:BSCA:1,2014-04-02T07:00:00Z,30.3288,-87.8293,1.742,9.33,1111122 
DISL,ioos:station:DISL:BSCA:1,2014-04-02T07:30:00Z,30.3288,-87.8293,1.766,10.17,1111122 
DISL,ioos:station:DISL:BSCA:1,2014-04-02T08:00:00Z,30.3288,-87.8293,1.796,10.11,1111122 
DISL,ioos:station:DISL:BSCA:1,2014-04-02T08:30:00Z,30.3288,-87.8293,1.824,9.61,1111122 
DISL,ioos:station:DISL:BSCA:1,2014-04-02T09:00:00Z,30.3288,-87.8293,1.85,9.74,1111122 
DISL,ioos:station:DISL:BSCA:1,2014-04-02T09:30:00Z,30.3288,-87.8293,1.872,9.89,1111122 
DISL,ioos:station:DISL:BSCA:1,2014-04-02T10:00:00Z,30.3288,-87.8293,1.895,10.12,1111122 
DISL,ioos:station:DISL:BSCA:1,2014-04-02T10:30:00Z,30.3288,-87.8293,1.91,9.79,1111122 
DISL,ioos:station:DISL:BSCA:1,2014-04-02T11:00:00Z,30.3288,-87.8293,1.919,9.77,1111122 
DISL,ioos:station:DISL:BSCA:1,2014-04-02T11:30:00Z,30.3288,-87.8293,1.934,9.86,1111122 
DISL,ioos:station:DISL:BSCA:1,2014-04-02T12:00:00Z,30.3288,-87.8293,1.946,9.76,1111122 
DISL,ioos:station:DISL:BSCA:1,2014-04-02T12:30:00Z,30.3288,-87.8293,1.964,9.35,1111122 
DISL,ioos:station:DISL:BSCA:1,2014-04-02T13:00:00Z,30.3288,-87.8293,1.984,9.64,1111122 
DISL,ioos:station:DISL:BSCA:1,2014-04-02T13:30:00Z,30.3288,-87.8293,2.015,9.47,1111122 
DISL,ioos:station:DISL:BSCA:1,2014-04-02T14:00:00Z,30.3288,-87.8293,2.027,9.84,1111122 
DISL,ioos:station:DISL:BSCA:1,2014-04-02T14:30:00Z,30.3288,-87.8293,2.05,9.56,1111122 
DISL,ioos:station:DISL:BSCA:1,2014-04-02T15:00:00Z,30.3288,-87.8293,2.074,9.94,1111122 
DISL,ioos:station:DISL:BSCA:1,2014-04-02T15:30:00Z,30.3288,-87.8293,2.078,9.91,1111122 
DISL,ioos:station:DISL:BSCA:1,2014-04-02T16:00:00Z,30.3288,-87.8293,2.094,10.0,1111122 
DISL,ioos:station:DISL:BSCA:1,2014-04-02T16:30:00Z,30.3288,-87.8293,2.099,9.93,1111122 
DISL,ioos:station:DISL:BSCA:1,2014-04-02T17:00:00Z,30.3288,-87.8293,2.092,10.42,1111122 
DISL,ioos:station:DISL:BSCA:1,2014-04-02T17:30:00Z,30.3288,-87.8293,2.102,9.94,1111122 
DISL,ioos:station:DISL:BSCA:1,2014-04-02T18:00:00Z,30.3288,-87.8293,2.095,10.14,1111122 
DISL,ioos:station:DISL:BSCA:1,2014-04-02T18:30:00Z,30.3288,-87.8293,2.086,9.98,1111122 
DISL,ioos:station:DISL:BSCA:1,2014-04-02T19:00:00Z,30.3288,-87.8293,2.066,10.04,1111122 
DISL,ioos:station:DISL:BSCA:1,2014-04-02T19:30:00Z,30.3288,-87.8293,2.031,9.93,1111122 
DISL,ioos:station:DISL:BSCA:1,2014-04-02T20:00:00Z,30.3288,-87.8293,2.023,10.22,1111122 
DISL,ioos:station:DISL:BSCA:1,2014-04-02T20:30:00Z,30.3288,-87.8293,1.99,10.3,1111122 
DISL,ioos:station:DISL:BSCA:1,2014-04-02T21:00:00Z,30.3288,-87.8293,1.969,10.04,1111122 
DISL,ioos:station:DISL:BSCA:1,2014-04-02T21:30:00Z,30.3288,-87.8293,1.937,10.28,1111122 
DISL,ioos:station:DISL:BSCA:1,2014-04-02T22:00:00Z,30.3288,-87.8293,1.901,10.18,1111122 
DISL,ioos:station:DISL:BSCA:1,2014-04-02T22:30:00Z,30.3288,-87.8293,1.864,10.34,1111122 
DISL,ioos:station:DISL:BSCA:1,2014-04-02T23:00:00Z,30.3288,-87.8293,1.829,10.32,1111122 
DISL,ioos:station:DISL:BSCA:1,2014-04-02T23:30:00Z,30.3288,-87.8293,1.801,9.95,1111122 
DISL,ioos:station:DISL:BSCA:1,2014-04-03T00:00:00Z,30.3288,-87.8293,1.771,9.94,1111122 
DISL,ioos:station:DISL:BSCA:1,2014-04-03T00:30:00Z,30.3288,-87.8293,1.739,10.04,1111122 
DISL,ioos:station:DISL:BSCA:1,2014-04-03T01:00:00Z,30.3288,-87.8293,1.711,9.98,1111122 
DISL,ioos:station:DISL:BSCA:1,2014-04-03T01:30:00Z,30.3288,-87.8293,1.685,10.0,1111122 
DISL,ioos:station:DISL:BSCA:1,2014-04-03T02:00:00Z,30.3288,-87.8293,1.66,9.71,1111122 
DISL,ioos:station:DISL:BSCA:1,2014-04-03T02:30:00Z,30.3288,-87.8293,1.639,9.8,1111122 
DISL,ioos:station:DISL:BSCA:1,2014-04-03T03:00:00Z,30.3288,-87.8293,1.622,9.76,1111122 
DISL,ioos:station:DISL:BSCA:1,2014-04-03T03:30:00Z,30.3288,-87.8293,1.617,9.84,1111122 
DISL,ioos:station:DISL:BSCA:1,2014-04-03T04:00:00Z,30.3288,-87.8293,1.603,9.65,1111122 
DISL,ioos:station:DISL:BSCA:1,2014-04-03T04:30:00Z,30.3288,-87.8293,1.613,9.46,1111122 
DISL,ioos:station:DISL:BSCA:1,2014-04-03T05:00:00Z,30.3288,-87.8293,1.617,9.26,1111122 
DISL,ioos:station:DISL:BSCA:1,2014-04-03T05:30:00Z,30.3288,-87.8293,1.637,9.2,1111122 
DISL,ioos:station:DISL:BSCA:1,2014-04-03T06:00:00Z,30.3288,-87.8293,1.659,9.33,1111122 
DISL,ioos:station:DISL:BSCA:1,2014-04-03T06:30:00Z,30.3288,-87.8293,1.68,9.36,1111122 
DISL,ioos:station:DISL:BSCA:1,2014-04-03T07:00:00Z,30.3288,-87.8293,1.698,9.19,1111122 
DISL,ioos:station:DISL:BSCA:1,2014-04-03T07:30:00Z,30.3288,-87.8293,1.725,9.05,1111122 
DISL,ioos:station:DISL:BSCA:1,2014-04-03T08:00:00Z,30.3288,-87.8293,1.747,9.02,1111122 
DISL,ioos:station:DISL:BSCA:1,2014-04-03T08:30:00Z,30.3288,-87.8293,1.779,9.0,1111122 
DISL,ioos:station:DISL:BSCA:1,2014-04-03T09:00:00Z,30.3288,-87.8293,1.79,9.08,1111122 
DISL,ioos:station:DISL:BSCA:1,2014-04-03T09:30:00Z,30.3288,-87.8293,1.814,8.78,1111122 
DISL,ioos:station:DISL:BSCA:1,2014-04-03T10:00:00Z,30.3288,-87.8293,1.832,8.62,1111122 
DISL,ioos:station:DISL:BSCA:1,2014-04-03T10:30:00Z,30.3288,-87.8293,1.859,8.4,1111122 
DISL,ioos:station:DISL:BSCA:1,2014-04-03T11:00:00Z,30.3288,-87.8293,1.888,8.44,1111122 
DISL,ioos:station:DISL:BSCA:1,2014-04-03T11:30:00Z,30.3288,-87.8293,1.916,8.43,1111122 
DISL,ioos:station:DISL:BSCA:1,2014-04-03T12:00:00Z,30.3288,-87.8293,1.952,8.4,1111122 
DISL,ioos:station:DISL:BSCA:1,2014-04-03T12:30:00Z,30.3288,-87.8293,1.992,8.28,1111122 
DISL,ioos:station:DISL:BSCA:1,2014-04-03T13:00:00Z,30.3288,-87.8293,1.985,8.19,1111122 
DISL,ioos:station:DISL:BSCA:1,2014-04-03T13:30:00Z,30.3288,-87.8293,1.998,8.31,1111122 
DISL,ioos:station:DISL:BSCA:1,2014-04-03T14:00:00Z,30.3288,-87.8293,2.02,8.32,1111122 
DISL,ioos:station:DISL:BSCA:1,2014-04-03T14:30:00Z,30.3288,-87.8293,2.057,8.43,1111122 
DISL,ioos:station:DISL:BSCA:1,2014-04-03T15:00:00Z,30.3288,-87.8293,2.065,8.88,1111122 
DISL,ioos:station:DISL:BSCA:1,2014-04-03T15:30:00Z,30.3288,-87.8293,2.1,8.8,1111122 
DISL,ioos:station:DISL:BSCA:1,2014-04-03T16:00:00Z,30.3288,-87.8293,2.088,9.04,1111122 
DISL,ioos:station:DISL:BSCA:1,2014-04-03T16:30:00Z,30.3288,-87.8293,2.107,8.67,1111122 
DISL,ioos:station:DISL:BSCA:1,2014-04-03T17:00:00Z,30.3288,-87.8293,2.127,8.94,1111122 
DISL,ioos:station:DISL:BSCA:1,2014-04-03T17:30:00Z,30.3288,-87.8293,2.144,8.9,1111122 
DISL,ioos:station:DISL:BSCA:1,2014-04-03T18:00:00Z,30.3288,-87.8293,2.149,9.0,1111122 
DISL,ioos:station:DISL:BSCA:1,2014-04-03T18:30:00Z,30.3288,-87.8293,2.15,9.08,1111122 
DISL,ioos:station:DISL:BSCA:1,2014-04-03T19:00:00Z,30.3288,-87.8293,2.127,8.99,1111122 
DISL,ioos:station:DISL:BSCA:1,2014-04-03T19:30:00Z,30.3288,-87.8293,2.104,9.13,1111122 
DISL,ioos:station:DISL:BSCA:1,2014-04-03T20:00:00Z,30.3288,-87.8293,2.088,9.26,1111122 
DISL,ioos:station:DISL:BSCA:1,2014-04-03T20:30:00Z,30.3288,-87.8293,2.061,9.47,1111122 
DISL,ioos:station:DISL:BSCA:1,2014-04-03T21:00:00Z,30.3288,-87.8293,2.04,9.29,1111122 
DISL,ioos:station:DISL:BSCA:1,2014-04-03T21:30:00Z,30.3288,-87.8293,2.016,9.69,1111122 
DISL,ioos:station:DISL:BSCA:1,2014-04-03T22:00:00Z,30.3288,-87.8293,1.992,9.71,1111122 
DISL,ioos:station:DISL:BSCA:1,2014-04-03T22:30:00Z,30.3288,-87.8293,1.974,9.88,1111122 
DISL,ioos:station:DISL:BSCA:1,2014-04-03T23:00:00Z,30.3288,-87.8293,1.943,9.58,1111122 
DISL,ioos:station:DISL:BSCA:1,2014-04-03T23:30:00Z,30.3288,-87.8293,1.909,10.0,1111122 
DISL,ioos:station:DISL:BSCA:1,2014-04-04T00:00:00Z,30.3288,-87.8293,1.87,10.37,1111122 
DISL,ioos:station:DISL:BSCA:1,2014-04-04T00:30:00Z,30.3288,-87.8293,1.837,9.93,1111122 
DISL,ioos:station:DISL:BSCA:1,2014-04-04T01:00:00Z,30.3288,-87.8293,1.808,9.75,1111122 
DISL,ioos:station:DISL:BSCA:1,2014-04-04T01:30:00Z,30.3288,-87.8293,1.783,9.49,1111122 
DISL,ioos:station:DISL:BSCA:1,2014-04-04T02:00:00Z,30.3288,-87.8293,1.763,9.38,1111122 
DISL,ioos:station:DISL:BSCA:1,2014-04-04T02:30:00Z,30.3288,-87.8293,1.742,9.6,1111122 
DISL,ioos:station:DISL:BSCA:1,2014-04-04T03:00:00Z,30.3288,-87.8293,1.715,9.56,1111122 
DISL,ioos:station:DISL:BSCA:1,2014-04-04T03:30:00Z,30.3288,-87.8293,1.713,9.55,1111122 
DISL,ioos:station:DISL:BSCA:1,2014-04-04T04:00:00Z,30.3288,-87.8293,1.707,9.11,1111122 
DISL,ioos:station:DISL:BSCA:1,2014-04-04T04:30:00Z,30.3288,-87.8293,1.709,9.37,1111122 
DISL,ioos:station:DISL:BSCA:1,2014-04-04T05:00:00Z,30.3288,-87.8293,1.717,8.86,1111122 
DISL,ioos:station:DISL:BSCA:1,2014-04-04T05:30:00Z,30.3288,-87.8293,1.734,8.73,1111122 
DISL,ioos:station:DISL:BSCA:1,2014-04-04T06:00:00Z,30.3288,-87.8293,1.775,8.86,1111122 
DISL,ioos:station:DISL:BSCA:1,2014-04-04T06:30:00Z,30.3288,-87.8293,1.759,8.72,1111122 
DISL,ioos:station:DISL:BSCA:1,2014-04-04T07:00:00Z,30.3288,-87.8293,1.77,8.55,1111122 
DISL,ioos:station:DISL:BSCA:1,2014-04-04T07:30:00Z,30.3288,-87.8293,1.79,8.26,1111122 
DISL,ioos:station:DISL:BSCA:1,2014-04-04T08:00:00Z,30.3288,-87.8293,1.822,8.45,1111122 
DISL,ioos:station:DISL:BSCA:1,2014-04-04T08:30:00Z,30.3288,-87.8293,1.849,8.41,1111122 
DISL,ioos:station:DISL:BSCA:1,2014-04-04T09:00:00Z,30.3288,-87.8293,1.87,8.37,1111122 
DISL,ioos:station:DISL:BSCA:1,2014-04-04T09:30:00Z,30.3288,-87.8293,1.904,8.39,1111122 
DISL,ioos:station:DISL:BSCA:1,2014-04-04T10:00:00Z,30.3288,-87.8293,1.914,8.07,1111122 
DISL,ioos:station:DISL:BSCA:1,2014-04-04T10:30:00Z,30.3288,-87.8293,1.927,8.37,1111122 
DISL,ioos:station:DISL:BSCA:1,2014-04-04T11:00:00Z,30.3288,-87.8293,1.933,8.09,1111122 
DISL,ioos:station:DISL:BSCA:1,2014-04-04T11:30:00Z,30.3288,-87.8293,1.941,8.07,1111122 
DISL,ioos:station:DISL:BSCA:1,2014-04-04T12:00:00Z,30.3288,-87.8293,1.957,7.69,1111122 
DISL,ioos:station:DISL:BSCA:1,2014-04-04T12:30:00Z,30.3288,-87.8293,1.981,7.52,1111122 
DISL,ioos:station:DISL:BSCA:1,2014-04-04T13:00:00Z,30.3288,-87.8293,2.019,7.95,1111122 
DISL,ioos:station:DISL:BSCA:1,2014-04-04T13:30:00Z,30.3288,-87.8293,2.051,8.35,1111122 
DISL,ioos:station:DISL:BSCA:1,2014-04-04T14:00:00Z,30.3288,-87.8293,2.077,8.28,1111122 
DISL,ioos:station:DISL:BSCA:1,2014-04-04T14:30:00Z,30.3288,-87.8293,2.09,8.31,1111122 
DISL,ioos:station:DISL:BSCA:1,2014-04-04T15:00:00Z,30.3288,-87.8293,2.1,7.9,1111122 
DISL,ioos:station:DISL:BSCA:1,2014-04-04T15:30:00Z,30.3288,-87.8293,2.106,8.17,1111122 
DISL,ioos:station:DISL:BSCA:1,2014-04-04T16:00:00Z,30.3288,-87.8293,2.118,8.44,1111122 
DISL,ioos:station:DISL:BSCA:1,2014-04-04T16:30:00Z,30.3288,-87.8293,2.136,7.86,1111122 
DISL,ioos:station:DISL:BSCA:1,2014-04-04T17:00:00Z,30.3288,-87.8293,2.162,7.92,1111122 
DISL,ioos:station:DISL:BSCA:1,2014-04-04T17:30:00Z,30.3288,-87.8293,2.17,7.6,1111122 
DISL,ioos:station:DISL:BSCA:1,2014-04-04T18:00:00Z,30.3288,-87.8293,2.189,6.75,1111122 
DISL,ioos:station:DISL:BSCA:1,2014-04-04T18:30:00Z,30.3288,-87.8293,2.179,7.37,1111122 
DISL,ioos:station:DISL:BSCA:1,2014-04-04T19:00:00Z,30.3288,-87.8293,2.18,7.58,1111122 
DISL,ioos:station:DISL:BSCA:1,2014-04-04T19:30:00Z,30.3288,-87.8293,2.169,7.94,1111122 
DISL,ioos:station:DISL:BSCA:1,2014-04-04T20:00:00Z,30.3288,-87.8293,2.147,6.03,1111122 
DISL,ioos:station:DISL:BSCA:1,2014-04-04T20:30:00Z,30.3288,-87.8293,2.144,5.92,1111122 
DISL,ioos:station:DISL:BSCA:1,2014-04-04T21:00:00Z,30.3288,-87.8293,2.065,7.57,1111122 
DISL,ioos:station:DISL:BSCA:1,2014-04-04T21:30:00Z,30.3288,-87.8293,2.006,9.19,1111122 
DISL,ioos:station:DISL:BSCA:1,2014-04-04T22:00:00Z,30.3288,-87.8293,1.936,8.82,1111122 
DISL,ioos:station:DISL:BSCA:1,2014-04-04T22:30:00Z,30.3288,-87.8293,1.968,8.94,1111122 
DISL,ioos:station:DISL:BSCA:1,2014-04-04T23:00:00Z,30.3288,-87.8293,2.002,8.58,1111122 
DISL,ioos:station:DISL:BSCA:1,2014-04-04T23:30:00Z,30.3288,-87.8293,2.057,8.45,1111122 
DISL,ioos:station:DISL:BSCA:1,2014-04-05T00:00:00Z,30.3288,-87.8293,2.032,7.82,1111122 
DISL,ioos:station:DISL:BSCA:1,2014-04-05T00:30:00Z,30.3288,-87.8293,2.025,7.51,1111122 
DISL,ioos:station:DISL:BSCA:1,2014-04-05T01:00:00Z,30.3288,-87.8293,1.941,7.05,1111122 
DISL,ioos:station:DISL:BSCA:1,2014-04-05T01:30:00Z,30.3288,-87.8293,1.921,6.37,1111122 
DISL,ioos:station:DISL:BSCA:1,2014-04-05T02:00:00Z,30.3288,-87.8293,1.873,7.16,1111122 
DISL,ioos:station:DISL:BSCA:1,2014-04-05T02:30:00Z,30.3288,-87.8293,1.835,6.61,1111122 
DISL,ioos:station:DISL:BSCA:1,2014-04-05T03:00:00Z,30.3288,-87.8293,1.813,6.47,1111122 
DISL,ioos:station:DISL:BSCA:1,2014-04-05T03:30:00Z,30.3288,-87.8293,1.812,6.5,1111122 
DISL,ioos:station:DISL:BSCA:1,2014-04-05T04:00:00Z,30.3288,-87.8293,1.803,6.07,1111122 
DISL,ioos:station:DISL:BSCA:1,2014-04-05T04:30:00Z,30.3288,-87.8293,1.796,7.54,1111122 
DISL,ioos:station:DISL:BSCA:1,2014-04-05T05:00:00Z,30.3288,-87.8293,1.79,5.54,1111122 
DISL,ioos:station:DISL:BSCA:1,2014-04-05T05:30:00Z,30.3288,-87.8293,1.769,6.33,1111122 
DISL,ioos:station:DISL:BSCA:1,2014-04-05T06:00:00Z,30.3288,-87.8293,1.753,5.64,1111122 
DISL,ioos:station:DISL:BSCA:1,2014-04-05T06:30:00Z,30.3288,-87.8293,1.742,5.3,1111122 
DISL,ioos:station:DISL:BSCA:1,2014-04-05T07:00:00Z,30.3288,-87.8293,1.73,4.63,1111122 
DISL,ioos:station:DISL:BSCA:1,2014-04-05T07:30:00Z,30.3288,-87.8293,1.735,4.47,1111122 
DISL,ioos:station:DISL:BSCA:1,2014-04-05T08:00:00Z,30.3288,-87.8293,1.748,7.05,1111122 
DISL,ioos:station:DISL:BSCA:1,2014-04-05T08:30:00Z,30.3288,-87.8293,1.758,6.43,1111122 
DISL,ioos:station:DISL:BSCA:1,2014-04-05T09:00:00Z,30.3288,-87.8293,1.765,7.45,1111122 
DISL,ioos:station:DISL:BSCA:1,2014-04-05T09:30:00Z,30.3288,-87.8293,1.756,6.47,1111122 
DISL,ioos:station:DISL:BSCA:1,2014-04-05T10:00:00Z,30.3288,-87.8293,1.765,7.46,1111122 
DISL,ioos:station:DISL:BSCA:1,2014-04-05T10:30:00Z,30.3288,-87.8293,1.762,5.88,1111122 
DISL,ioos:station:DISL:BSCA:1,2014-04-05T11:00:00Z,30.3288,-87.8293,1.78,6.12,1111122 
DISL,ioos:station:DISL:BSCA:1,2014-04-05T11:30:00Z,30.3288,-87.8293,1.802,6.2,1111122 
DISL,ioos:station:DISL:BSCA:1,2014-04-05T12:00:00Z,30.3288,-87.8293,1.797,6.97,1111122 
DISL,ioos:station:DISL:BSCA:1,2014-04-05T12:30:00Z,30.3288,-87.8293,1.812,6.49,1111122 
DISL,ioos:station:DISL:BSCA:1,2014-04-05T13:00:00Z,30.3288,-87.8293,1.81,7.52,1111122 
DISL,ioos:station:DISL:BSCA:1,2014-04-05T13:30:00Z,30.3288,-87.8293,1.807,7.63,1111122 
DISL,ioos:station:DISL:BSCA:1,2014-04-05T14:00:00Z,30.3288,-87.8293,1.802,7.46,1111122 
DISL,ioos:station:DISL:BSCA:1,2014-04-05T14:30:00Z,30.3288,-87.8293,1.832,7.04,1111122 
DISL,ioos:station:DISL:BSCA:1,2014-04-05T15:00:00Z,30.3288,-87.8293,1.842,7.19,1111122 
DISL,ioos:station:DISL:BSCA:1,2014-04-05T15:30:00Z,30.3288,-87.8293,1.875,7.73,1111122 
DISL,ioos:station:DISL:BSCA:1,2014-04-05T16:00:00Z,30.3288,-87.8293,1.901,8.19,1111122 
DISL,ioos:station:DISL:BSCA:1,2014-04-05T16:30:00Z,30.3288,-87.8293,1.928,8.6,1111122 
DISL,ioos:station:DISL:BSCA:1,2014-04-05T17:00:00Z,30.3288,-87.8293,1.972,8.52,1111122 
DISL,ioos:station:DISL:BSCA:1,2014-04-05T17:30:00Z,30.3288,-87.8293,1.991,8.62,1111122 
DISL,ioos:station:DISL:BSCA:1,2014-04-05T18:00:00Z,30.3288,-87.8293,2.014,9.22,1111122 
DISL,ioos:station:DISL:BSCA:1,2014-04-05T18:30:00Z,30.3288,-87.8293,2.032,8.93,1111122 
DISL,ioos:station:DISL:BSCA:1,2014-04-05T19:00:00Z,30.3288,-87.8293,2.069,9.5,1111122 
DISL,ioos:station:DISL:BSCA:1,2014-04-05T19:30:00Z,30.3288,-87.8293,2.086,8.57,1111122 
DISL,ioos:station:DISL:BSCA:1,2014-04-05T20:00:00Z,30.3288,-87.8293,2.106,8.96,1111122 
DISL,ioos:station:DISL:BSCA:1,2014-04-05T20:30:00Z,30.3288,-87.8293,2.11,9.21,1111122 
DISL,ioos:station:DISL:BSCA:1,2014-04-05T21:00:00Z,30.3288,-87.8293,2.104,9.61,1111122 
DISL,ioos:station:DISL:BSCA:1,2014-04-05T21:30:00Z,30.3288,-87.8293,2.076,9.3,1111122 
DISL,ioos:station:DISL:BSCA:1,2014-04-05T22:00:00Z,30.3288,-87.8293,2.028,9.79,1111122 
DISL,ioos:station:DISL:BSCA:1,2014-04-05T22:30:00Z,30.3288,-87.8293,2.003,9.36,1111122 
DISL,ioos:station:DISL:BSCA:1,2014-04-05T23:00:00Z,30.3288,-87.8293,1.977,9.14,1111122 
DISL,ioos:station:DISL:BSCA:1,2014-04-05T23:30:00Z,30.3288,-87.8293,1.967,8.64,1111122 
DISL,ioos:station:DISL:BSCA:1,2014-04-06T00:00:00Z,30.3288,-87.8293,1.958,8.48,1111122 
DISL,ioos:station:DISL:BSCA:1,2014-04-06T00:30:00Z,30.3288,-87.8293,1.936,7.1,1111122 
DISL,ioos:station:DISL:BSCA:1,2014-04-06T01:00:00Z,30.3288,-87.8293,1.909,5.81,1111122 
DISL,ioos:station:DISL:BSCA:1,2014-04-06T01:30:00Z,30.3288,-87.8293,1.895,6.06,1111122 
DISL,ioos:station:DISL:BSCA:1,2014-04-06T02:00:00Z,30.3288,-87.8293,1.842,7.63,1111122 
DISL,ioos:station:DISL:BSCA:1,2014-04-06T02:30:00Z,30.3288,-87.8293,1.826,6.99,1111122 
DISL,ioos:station:DISL:BSCA:1,2014-04-06T03:00:00Z,30.3288,-87.8293,1.788,6.31,1111122 
DISL,ioos:station:DISL:BSCA:1,2014-04-06T03:30:00Z,30.3288,-87.8293,1.769,7.96,1111122 
DISL,ioos:station:DISL:BSCA:1,2014-04-06T04:00:00Z,30.3288,-87.8293,1.74,6.16,1111122 
DISL,ioos:station:DISL:BSCA:1,2014-04-06T04:30:00Z,30.3288,-87.8293,1.724,7.21,1111122 
DISL,ioos:station:DISL:BSCA:1,2014-04-06T05:00:00Z,30.3288,-87.8293,1.73,6.53,1111122 
DISL,ioos:station:DISL:BSCA:1,2014-04-06T05:30:00Z,30.3288,-87.8293,1.734,4.57,1111122 
DISL,ioos:station:DISL:BSCA:1,2014-04-06T06:00:00Z,30.3288,-87.8293,1.727,5.98,1111122 
DISL,ioos:station:DISL:BSCA:1,2014-04-06T06:30:00Z,30.3288,-87.8293,1.725,4.4,1111122 
DISL,ioos:station:DISL:BSCA:1,2014-04-06T07:00:00Z,30.3288,-87.8293,1.705,6.04,1111122 
DISL,ioos:station:DISL:BSCA:1,2014-04-06T07:30:00Z,30.3288,-87.8293,1.703,5.21,1111122 
DISL,ioos:station:DISL:BSCA:1,2014-04-06T08:00:00Z,30.3288,-87.8293,1.688,6.53,1111122 
DISL,ioos:station:DISL:BSCA:1,2014-04-06T08:30:00Z,30.3288,-87.8293,1.671,7.45,1111122 
DISL,ioos:station:DISL:BSCA:1,2014-04-06T09:00:00Z,30.3288,-87.8293,1.692,7.68,1111122 
DISL,ioos:station:DISL:BSCA:1,2014-04-06T09:30:00Z,30.3288,-87.8293,1.705,7.15,1111122 
DISL,ioos:station:DISL:BSCA:1,2014-04-06T10:00:00Z,30.3288,-87.8293,1.729,7.04,1111122 
DISL,ioos:station:DISL:BSCA:1,2014-04-06T10:30:00Z,30.3288,-87.8293,1.761,6.64,1111122 
DISL,ioos:station:DISL:BSCA:1,2014-04-06T11:00:00Z,30.3288,-87.8293,1.786,6.8,1111122 
DISL,ioos:station:DISL:BSCA:1,2014-04-06T11:30:00Z,30.3288,-87.8293,1.814,6.31,1111122 
DISL,ioos:station:DISL:BSCA:1,2014-04-06T12:00:00Z,30.3288,-87.8293,1.836,6.08,1111122 
DISL,ioos:station:DISL:BSCA:1,2014-04-06T12:30:00Z,30.3288,-87.8293,1.865,5.38,1111122 
DISL,ioos:station:DISL:BSCA:1,2014-04-06T13:00:00Z,30.3288,-87.8293,1.895,5.9,1111122 
DISL,ioos:station:DISL:BSCA:1,2014-04-06T13:30:00Z,30.3288,-87.8293,1.931,5.72,1111122 
DISL,ioos:station:DISL:BSCA:1,2014-04-06T14:00:00Z,30.3288,-87.8293,1.992,6.82,1111122 
DISL,ioos:station:DISL:BSCA:1,2014-04-06T14:30:00Z,30.3288,-87.8293,2.054,7.82,1111122 
DISL,ioos:station:DISL:BSCA:1,2014-04-06T15:00:00Z,30.3288,-87.8293,2.077,7.95,1111122 